Location: Cerbedi�res
(48.2182°N, 1.4849°W)
Time: 15:37:17
(UTC+00:00)

SL-8 Rocket - Pass Details

Date: 03 March 2021
Orbit: 957 x 990 km, 82.9° (Epoch: 20 April)

Event Time Altitude Azimuth Distance (km) Brightness Sun altitude
Rises 19:50:53 0° 186° (S) 3,668 6.9 -20.2°
Reaches altitude 10° 19:53:23 10° 187° (S) 2,720 6.3 -20.7°
Maximum altitude 19:59:38 90° 86° (E) 979 3.9 -21.7°
Drops below altitude 10° 20:05:52 10° 9° (N) 2,716 6.4 -22.7°
Sets 20:08:23 0° 10° (N) 3,663 7.1 -23.1°
